[[{"header":{"parameterUnit":"m.s-1","parameterCategory":1,"la1":30.2991,"la2":30.254,"lo1":-89.0895,"lo2":-89.0444,"dy":0.0017,"dx":0.0017,"nx":28,"ny":28,"refTime":"2024-08-11T21:00:00:Z","depth":0,"parameterNumber":2,"parameterNumberName":"U-component_of_WINDS"},"data":[0,0,0,0,0,0,0,0,0,0,0,0,0,0,0,0,0,0,0,0,0,0,0,0,0,0,0,0,0,0,0,0,0,0,0,0,0,0,0,0,0,0,0,0,0,0,0,0,0,0,0,0,0,0,0,0,0,0,-1.5298,-1.5297,0,-1.5253,-1.5252,-1.5252,-1.5179,-1.5177,-1.5176,-1.5175,-1.513,-1.513,-1.513,0,0,0,0,0,0,0,0,0,0,0,0,0,-1.5321,-1.5321,-1.5298,-1.5297,-1.5297,-1.5253,-1.5252,-1.5252,-1.5179,-1.5177,-1.5176,-1.5174,-1.513,-1.513,-1.513,0,0,0,0,0,0,0,0,0,0,0,0,0,-1.5297,-1.5321,-1.5298,-1.5255,-1.5251,-1.5253,-1.5252,-1.5252,-1.5179,-1.5177,-1.5175,-1.5173,-1.513,-1.513,-1.513,-1.5171,0,0,-1.513,-1.513,0,0,0,0,0,0,0,0,-1.5298,-1.5296,-1.5262,-1.5258,-1.5253,-1.5219,-1.5244,-1.5224,-1.518,-1.5206,-1.5175,-1.5172,-1.5161,-1.5159,-1.5155,-1.5168,-1.5167,-1.513,-1.513,-1.513,-1.513,0,0,0,0,0,0,0,-1.53,-1.5298,-1.528,-1.5261,-1.5256,-1.5238,-1.5233,-1.524,-1.5196,-1.5204,-1.5199,-1.5194,-1.5158,-1.5155,-1.5153,-1.5166,-1.513,-1.513,-1.513,-1.513,-1.5212,-1.5214,0,0,0,0,0,0,-1.5308,-1.53,-1.5281,-1.5279,-1.5271,-1.5239,-1.5233,-1.5232,-1.5195,-1.5188,-1.5196,-1.5191,-1.5156,-1.5153,-1.5151,-1.5197,-1.513,-1.513,-1.513,-1.521,-1.5212,-1.5214,0,0,0,0,0,0,-1.5309,-1.5307,-1.5283,-1.5288,-1.5283,-1.5241,-1.5241,-1.5232,-1.5229,-1.5189,-1.5181,-1.52,-1.5154,-1.5151,-1.5166,-1.5195,-1.513,-1.513,-1.5207,-1.521,-1.5213,-1.529,0,0,0,0,0,0,-1.531,-1.5308,-1.5323,-1.5288,-1.5283,-1.5299,-1.5242,-1.5233,-1.5229,-1.5222,-1.5191,-1.5184,-1.5152,-1.5167,-1.5167,-1.5194,-1.513,-1.5204,-1.5208,-1.5212,-1.5284,-1.5295,-1.5304,0,0,0,0,0,-1.5311,-1.5346,-1.5324,-1.5322,-1.5301,-1.5301,-1.5298,-1.526,-1.5231,-1.5246,-1.5221,-1.5185,-1.5191,-1.5169,-1.5168,-1.5196,-1.5202,-1.5207,-1.5212,-1.528,-1.5293,-1.5304,0,0,0,0,0,0,-1.5385,-1.5341,-1.5316,-1.5341,-1.5325,-1.5289,-1.5306,-1.5275,-1.5267,-1.5261,-1.5215,-1.5208,-1.523,-1.5214,-1.519,-1.5233,-1.5191,-1.5196,-1.5243,-1.5255,-1.5265,-1.5269,-1.513,0,0,0,0,0,-1.5404,-1.5408,-1.5369,-1.5395,-1.5388,-1.5349,-1.5347,-1.532,-1.5302,-1.5295,-1.5271,-1.5255,-1.5253,-1.5253,-1.5249,-1.5281,-1.5274,-1.53,-1.531,-1.5318,-1.5323,-1.534,-1.5351,-1.523,-1.523,-1.523,0,0,-1.5444,-1.542,-1.5426,-1.5409,-1.5394,-1.5399,-1.5344,-1.5351,-1.5355,-1.5296,-1.5309,-1.5291,-1.527,-1.5295,-1.5304,-1.5282,-1.5355,-1.5324,-1.5331,-1.5331,-1.5346,-1.5357,-1.5368,-1.5233,-1.5233,-1.5232,0,0,-1.552,-1.5502,-1.5522,-1.5508,-1.5485,-1.5458,-1.5463,-1.5431,-1.5417,-1.543,-1.5386,-1.5389,-1.5387,-1.5374,-1.5368,-1.5438,-1.5405,-1.5438,-1.549,-1.5507,-1.5517,-1.5525,-1.5551,-1.5561,-1.5443,-1.5443,-1.5444,0,-1.5573,-1.5578,-1.5536,-1.5547,-1.5541,-1.5487,-1.5508,-1.5496,-1.5474,-1.5471,-1.5446,-1.5443,-1.5425,-1.5446,-1.5463,-1.5459,-1.5464,-1.5442,-1.5519,-1.5526,-1.5533,-1.5558,-1.5568,-1.5448,-1.5447,-1.5447,-1.5446,0,-1.5645,-1.5649,-1.5668,-1.5648,-1.5644,-1.566,-1.562,-1.5622,-1.5594,-1.557,-1.5584,-1.5561,-1.5552,-1.5554,-1.5527,-1.5571,-1.5559,-1.5527,-1.5484,-1.555,-1.5573,-1.5582,-1.5454,-1.5452,-1.5451,-1.545,0,0,-1.5767,-1.5723,-1.5731,-1.5721,-1.5692,-1.5695,-1.5708,-1.5699,-1.5702,-1.5688,-1.5698,-1.5697,-1.5668,-1.566,-1.5631,-1.5646,-1.5705,-1.5612,-1.5611,-1.5632,-1.5754,-1.5779,-1.5791,-1.5682,-1.5684,-1.5685,-1.5756,0,-1.5838,-1.5858,-1.582,-1.5849,-1.5853,-1.5802,-1.5814,-1.5797,-1.5776,-1.5776,-1.5751,-1.5753,-1.5713,-1.5708,-1.572,-1.5695,-1.5729,-1.5689,-1.5693,-1.5693,-1.5701,-1.5802,-1.5829,-1.5897,-1.5764,-1.5766,-1.5767,0,-1.5923,-1.5914,-1.5944,-1.5913,-1.5913,-1.5924,-1.5913,-1.5914,-1.5895,-1.5878,-1.5869,-1.5835,-1.5846,-1.5804,-1.5819,-1.5793,-1.5791,-1.578,-1.5781,-1.5781,-1.5735,-1.5806,-1.5917,-1.5928,-1.578,-1.5779,-1.5778,0,-1.6011,-1.6006,-1.6023,-1.6016,-1.5981,-1.599,-1.5975,-1.5954,-1.5951,-1.5941,-1.5939,-1.5931,-1.5926,-1.5921,-1.5886,-1.5858,-1.5905,-1.586,-1.5892,-1.5894,-1.5906,-1.5906,-1.602,-1.5903,-1.5903,-1.5903,-1.5902,0,-1.6095,-1.6116,-1.6062,-1.6073,-1.6094,-1.6051,-1.6073,-1.6054,-1.6035,-1.6041,-1.5996,-1.6003,-1.5955,-1.5957,-1.5929,-1.5947,-1.5945,-1.5932,-1.5925,-1.5937,-1.5939,-1.5937,-1.5932,-1.5905,-1.5905,-1.5904,-1.5904,0,-1.6198,-1.6162,-1.6178,-1.6143,-1.6135,-1.6152,-1.6123,-1.6131,-1.6106,-1.6115,-1.6114,-1.6075,-1.6075,-1.6039,-1.6031,-1.6012,-1.6042,-1.6025,-1.6049,-1.6044,-1.608,-1.6078,-1.6197,-1.6211,-1.6085,-1.6086,-1.6087,0,-1.6255,-1.6269,-1.6236,-1.6237,-1.6225,-1.6227,-1.6223,-1.6181,-1.6179,-1.6158,-1.617,-1.6166,-1.6161,-1.6163,-1.6134,-1.6128,-1.6112,-1.6154,-1.6111,-1.6123,-1.6114,-1.6115,-1.6117,-1.6164,-1.6166,-1.6167,-1.6168,0,-1.6359,-1.6341,-1.6338,-1.6329,-1.6327,-1.6318,-1.6306,-1.6309,-1.6263,-1.6264,-1.6263,-1.6259,-1.6251,-1.6248,-1.6237,-1.6222,-1.6188,-1.6182,-1.6189,-1.6203,-1.6217,-1.6211,-1.6076,-1.618,-1.6178,-1.6178,-1.6177,-1.6177,-1.6442,-1.6453,-1.6431,-1.6429,-1.6416,-1.6406,-1.6412,-1.6388,-1.6387,-1.6377,-1.6352,-1.6356,-1.6336,-1.6317,-1.6305,-1.6308,-1.6287,-1.6297,-1.63,-1.6304,-1.6312,-1.6215,-1.6305,-1.6305,-1.6305,-1.6304,-1.6304,0,-1.6545,-1.6529,-1.6528,-1.6513,-1.6511,-1.6478,-1.6463,-1.6465,-1.6469,-1.6453,-1.6449,-1.6448,-1.6445,-1.6416,-1.641,-1.6417,-1.6402,-1.6417,-1.6417,-1.6415,-1.633,-1.6325,-1.643,-1.643,-1.643,-1.643,-1.643,-1.643,-1.6599,-1.6617,-1.6596,-1.6606,-1.6589,-1.6592,-1.6587,-1.6577,-1.6565,-1.6566,-1.6563,-1.6544,-1.6523,-1.6515,-1.6511,-1.6502,-1.6503,-1.6524,-1.6511,-1.6433,-1.6421,-1.6409,-1.6404,-1.6524,-1.6524,-1.6595,-1.6596,-1.6596]},{"header":{"parameterUnit":"m.s-1","parameterCategory":1,"la1":30.2991,"la2":30.254,"lo1":-89.0895,"lo2":-89.0444,"dy":0.0017,"dx":0.0017,"nx":28,"ny":28,"refTime":"2024-08-11T21:00:00:Z","depth":0,"parameterNumber":3,"parameterNumberName":"V-component_of_WINDS"},"data":[0,0,0,0,0,0,0,0,0,0,0,0,0,0,0,0,0,0,0,0,0,0,0,0,0,0,0,0,0,0,0,0,0,0,0,0,0,0,0,0,0,0,0,0,0,0,0,0,0,0,0,0,0,0,0,0,0,0,-2.0408,-2.0408,0,-2.0426,-2.0426,-2.0426,-2.0412,-2.0411,-2.0411,-2.041,-2.0426,-2.0427,-2.0428,0,0,0,0,0,0,0,0,0,0,0,0,0,-2.036,-2.0361,-2.0408,-2.0408,-2.0409,-2.0426,-2.0426,-2.0426,-2.0412,-2.0411,-2.0411,-2.041,-2.0426,-2.0427,-2.0428,0,0,0,0,0,0,0,0,0,0,0,0,0,-2.0379,-2.0361,-2.0408,-2.0404,-2.0403,-2.0426,-2.0426,-2.0426,-2.0412,-2.0411,-2.041,-2.041,-2.0425,-2.0427,-2.0428,-2.0455,0,0,-2.0433,-2.0433,0,0,0,0,0,0,0,0,-2.0378,-2.0381,-2.0404,-2.0404,-2.0404,-2.0416,-2.0415,-2.0436,-2.0412,-2.0409,-2.041,-2.0409,-2.0423,-2.0425,-2.043,-2.0456,-2.0457,-2.0433,-2.0434,-2.0434,-2.0435,0,0,0,0,0,0,0,-2.0377,-2.038,-2.0415,-2.0404,-2.0404,-2.04,-2.0402,-2.0419,-2.0421,-2.0409,-2.0408,-2.041,-2.0423,-2.0429,-2.043,-2.0457,-2.0433,-2.0434,-2.0435,-2.0436,-2.0507,-2.0508,0,0,0,0,0,0,-2.0376,-2.0379,-2.0415,-2.0416,-2.0389,-2.0402,-2.0404,-2.0413,-2.0421,-2.0421,-2.0411,-2.041,-2.0427,-2.0429,-2.0431,-2.0464,-2.0434,-2.0436,-2.0437,-2.0506,-2.0507,-2.0508,0,0,0,0,0,0,-2.0375,-2.038,-2.0414,-2.0397,-2.0401,-2.0403,-2.0414,-2.0414,-2.0419,-2.0422,-2.0422,-2.0417,-2.0426,-2.0429,-2.045,-2.0464,-2.0436,-2.0438,-2.0504,-2.0506,-2.0507,-2.0529,0,0,0,0,0,0,-2.0374,-2.0379,-2.039,-2.0398,-2.0402,-2.0433,-2.0415,-2.0415,-2.0422,-2.0421,-2.0428,-2.0428,-2.0425,-2.0448,-2.0451,-2.0466,-2.0439,-2.0503,-2.0505,-2.0507,-2.0527,-2.0531,-2.0535,0,0,0,0,0,-2.0372,-2.0395,-2.0391,-2.0395,-2.0416,-2.0434,-2.0437,-2.0434,-2.0423,-2.0434,-2.0436,-2.0428,-2.0462,-2.045,-2.0454,-2.0469,-2.0502,-2.0505,-2.0507,-2.0526,-2.053,-2.0535,0,0,0,0,0,0,-2.0389,-2.0396,-2.0391,-2.0418,-2.0425,-2.0432,-2.0445,-2.0439,-2.045,-2.0448,-2.0443,-2.0445,-2.0467,-2.047,-2.0456,-2.0496,-2.048,-2.0483,-2.0493,-2.0498,-2.0502,-2.0501,-2.044,0,0,0,0,0,-2.0395,-2.041,-2.0415,-2.0438,-2.0442,-2.0443,-2.0451,-2.0448,-2.0456,-2.0459,-2.0462,-2.0469,-2.0481,-2.049,-2.0501,-2.0527,-2.0529,-2.0539,-2.0543,-2.0546,-2.0549,-2.0564,-2.0569,-2.0515,-2.0515,-2.0515,0,0,-2.0409,-2.0415,-2.0425,-2.0441,-2.0447,-2.0462,-2.0446,-2.0462,-2.0473,-2.0461,-2.0481,-2.0484,-2.0491,-2.0515,-2.0526,-2.0518,-2.0564,-2.0549,-2.0552,-2.0553,-2.0566,-2.0571,-2.0576,-2.0517,-2.0517,-2.0516,0,0,-2.0442,-2.0448,-2.0468,-2.0474,-2.0483,-2.0484,-2.0488,-2.0496,-2.0497,-2.0518,-2.0509,-2.0521,-2.0543,-2.0549,-2.0554,-2.059,-2.0582,-2.0593,-2.0613,-2.0627,-2.0631,-2.0635,-2.0648,-2.0653,-2.0596,-2.0596,-2.0596,0,-2.0458,-2.0481,-2.0478,-2.0496,-2.0503,-2.0494,-2.0513,-2.0519,-2.0531,-2.0536,-2.0528,-2.0555,-2.0559,-2.0584,-2.0593,-2.0598,-2.0603,-2.0593,-2.0631,-2.0635,-2.0638,-2.065,-2.0655,-2.0597,-2.0597,-2.0597,-2.0597,0,-2.05,-2.0516,-2.0531,-2.0544,-2.0553,-2.0571,-2.0571,-2.058,-2.0576,-2.0577,-2.0598,-2.0603,-2.0616,-2.0621,-2.0618,-2.0646,-2.0641,-2.0632,-2.0616,-2.0645,-2.0656,-2.0661,-2.0599,-2.0599,-2.0598,-2.0598,0,0,-2.0544,-2.0556,-2.0562,-2.0568,-2.0577,-2.0589,-2.0606,-2.0619,-2.0627,-2.0636,-2.065,-2.0669,-2.066,-2.0667,-2.0664,-2.0676,-2.0704,-2.0665,-2.0665,-2.0673,-2.0736,-2.0743,-2.0749,-2.0699,-2.07,-2.0701,-2.0736,0,-2.0578,-2.061,-2.0608,-2.0638,-2.0652,-2.0643,-2.0658,-2.0666,-2.0667,-2.0679,-2.068,-2.0693,-2.0681,-2.0685,-2.0697,-2.0698,-2.0717,-2.0696,-2.0712,-2.0713,-2.0711,-2.0755,-2.0763,-2.0795,-2.074,-2.0741,-2.0741,0,-2.0622,-2.0634,-2.0665,-2.0673,-2.0678,-2.0692,-2.0704,-2.0716,-2.0723,-2.0723,-2.0731,-2.0726,-2.0743,-2.0727,-2.075,-2.0736,-2.0742,-2.0744,-2.0745,-2.0747,-2.0729,-2.0758,-2.0806,-2.0811,-2.0748,-2.0748,-2.0747,0,-2.0652,-2.0675,-2.0697,-2.0702,-2.0711,-2.0721,-2.0725,-2.0732,-2.074,-2.075,-2.0755,-2.0766,-2.0773,-2.0782,-2.0779,-2.0768,-2.0803,-2.0787,-2.0804,-2.0804,-2.0812,-2.0812,-2.0862,-2.0816,-2.0815,-2.0815,-2.0815,0,-2.0691,-2.071,-2.071,-2.0724,-2.0745,-2.0742,-2.0763,-2.0766,-2.0772,-2.0786,-2.0778,-2.0791,-2.0787,-2.0799,-2.0797,-2.0817,-2.082,-2.082,-2.0819,-2.0821,-2.0821,-2.0826,-2.0824,-2.0817,-2.0816,-2.0816,-2.0816,0,-2.0728,-2.0729,-2.0752,-2.0759,-2.0761,-2.0777,-2.0782,-2.0795,-2.0795,-2.0813,-2.0816,-2.0817,-2.0831,-2.083,-2.0845,-2.0844,-2.0869,-2.0865,-2.0866,-2.0866,-2.0883,-2.0882,-2.0938,-2.0945,-2.0894,-2.0894,-2.0895,0,-2.0753,-2.0768,-2.0777,-2.0786,-2.0791,-2.0805,-2.0813,-2.0811,-2.082,-2.083,-2.0841,-2.0854,-2.0865,-2.0887,-2.0889,-2.0901,-2.0897,-2.0916,-2.0899,-2.09,-2.0898,-2.0898,-2.0899,-2.092,-2.0921,-2.0921,-2.0921,0,-2.0797,-2.0797,-2.081,-2.0823,-2.0833,-2.0843,-2.0852,-2.0859,-2.0858,-2.0868,-2.0882,-2.0891,-2.0907,-2.092,-2.0931,-2.0935,-2.0928,-2.0927,-2.0931,-2.0934,-2.0934,-2.0934,-2.0876,-2.0926,-2.0925,-2.0925,-2.0925,-2.0924,-2.0829,-2.0842,-2.0851,-2.0865,-2.0872,-2.0881,-2.0893,-2.0895,-2.0908,-2.0921,-2.0919,-2.0935,-2.0942,-2.0956,-2.0961,-2.0973,-2.0966,-2.0973,-2.0975,-2.0976,-2.0979,-2.0932,-2.0975,-2.0975,-2.0975,-2.0975,-2.0975,0,-2.0874,-2.0879,-2.0892,-2.0905,-2.0917,-2.091,-2.0919,-2.0929,-2.0944,-2.0951,-2.0962,-2.0979,-2.0992,-2.0995,-2.1007,-2.1016,-2.1013,-2.102,-2.1019,-2.102,-2.0984,-2.0979,-2.1022,-2.1022,-2.1022,-2.1022,-2.1022,-2.1022,-2.0898,-2.092,-2.0921,-2.0946,-2.095,-2.0967,-2.0973,-2.0981,-2.0987,-2.1006,-2.1017,-2.1019,-2.1025,-2.1037,-2.1049,-2.1049,-2.1054,-2.1062,-2.1061,-2.1027,-2.1022,-2.1018,-2.1013,-2.1063,-2.1063,-2.1096,-2.1096,-2.1096]}]]